CAPE
317 386 556 721 899 1002 1046 1136 1167 1252 1206 1210 1296 1426 1447 1426 1347 1904 1772 1648 1644 1610 1593 1129 860 1310 1035 888 1117 1140 1197 996 1042 494 319 380 638 974 680 494 470 728
85 129 256 433 439 628 1152 1026 1226 1165 1303 1266 1098 1246 1363 1430 1588 1199 1383 1693 1714 1562 1413 1138 1288 1366 1206 994 1037 1039 1088 1214 514 530 339 389 734 702 878 782 703 454
8 16 104 302 463 537 743 1055 1127 1254 1279 1190 1166 1238 1108 1272 1302 1156 826 623 895 1583 1428 702 928 1492 766 1012 905 633 567 760 703 765 296 971 610 324 812 888 592 487
8 10 17 91 255 426 586 826 1226 1320 1229 1376 1357 1356 1486 1291 1296 1323 1394 947 557 763 954 503 502 736 939 897 796 822 480 388 382 663 423 432 240 763 713 837 867 479
4 7 8 17 69 167 367 737 1044 1246 1190 1213 1293 1402 1424 1286 1446 1464 1308 1339 1035 912 636 820 949 1009 992 705 668 700 812 734 626 767 861 527 296 197 283 1045 716 409
6 2 4 7 8 9 124 283 692 899 1080 1389 1359 1172 1384 1391 1376 1226 1022 1050 1089 623 1166 1393 1232 984 987 773 688 636 714 819 752 614 794 525 649 457 549 363 337 390
7 4 4 3 6 6 9 96 280 376 419 632 839 1239 1019 1066 1115 1051 1156 1100 919 837 1122 947 682 635 743 884 690 636 706 744 485 314 387 131 90 256 720 449 518 420
4 6 2 3 7 4 4 3 9 316 415 442 503 689 970 1132 1063 1110 1074 995 921 869 673 717 737 528 569 835 853 759 506 362 126 147 210 165 365 612 857 619 259 283
5 5 2 2 1 4 6 3 4 3 336 424 500 593 607 800 1042 988 981 993 883 833 806 904 634 962 1069 894 770 522 587 464 149 51 169 469 577 848 654 589 546 353
2 4 3 2 2 2 2 5 7 6 6 50 580 618 614 576 610 976 954 887 922 753 878 506 771 914 724 496 442 402 629 545 148 176 143 95 154 289 447 300 203 408
7 7 3 2 1 1 3 5 6 6 5 6 6 394 537 552 502 612 874 960 848 705 662 592 864 874 540 472 474 659 651 653 548 580 444 307 316 444 231 216 235 256
4 4 2 2 0 1 3 3 4 6 5 6 5 7 11 411 419 456 690 704 852 531 858 475 912 815 395 405 408 828 943 719 806 825 671 754 518 729 342 222 281 218
4 5 5 3 3 2 3 4 6 5 4 3 4 5 4 7 44 249 377 494 699 664 505 713 798 646 392 306 312 627 1180 1081 1018 867 750 540 601 700 583 369 300 521
3 4 4 1 1 3 3 6 4 4 1 1 3 3 3 1 2 2 183 438 575 505 440 417 348 863 475 506 459 860 889 938 958 998 770 531 561 716 683 842 315 320
5 4 6 4 2 6 2 1 3 2 1 1 2 2 2 0 0 1 3 258 242 392 544 394 492 533 315 271 571 571 420 696 871 628 610 622 563 641 775 704 488 346
4 7 7 7 7 5 3 2 2 4 2 1 1 2 1 2 1 50 16 237 292 313 311 366 343 359 318 215 244 312 270 496 442 365 504 419 510 518 372 320 568 447
4 6 7 6 8 6 6 5 2 5 4 2 1 1 2 2 1 6 81 4 248 329 333 363 348 331 332 360 348 366 416 501 426 500 553 580 632 562 405 545 466 464
6 3 4 5 4 6 5 4 6 3 4 3 2 1 2 1 3 5 26 197 270 315 323 286 325 366 320 354 339 394 410 328 282 430 674 698 630 806 1014 738 464 428
3 4 5 4 4 4 5 6 8 5 6 5 4 6 3 0 1 2 54 147 278 368 373 330 280 308 317 279 352 357 362 352 296 342 1027 1012 512 418 343 237 247 301
0 3 5 6 6 8 7 6 6 5 6 5 5 5 4 3 0 1 5 105 202 342 371 314 286 218 209 227 276 301 309 302 302 301 334 577 692 450 315 317 260 292
0 2 3 5 7 8 10 9 10 10 9 6 7 7 4 3 1 1 1 1 112 201 323 363 338 251 160 191 151 225 230 244 256 268 306 359 365 584 750 473 479 343
0 1 2 3 5 6 9 8 9 9 8 8 8 7 10 1 1 2 1 2 2 75 180 260 318 345 293 181 181 45 193 230 215 168 218 295 332 379 353 531 342 226
0 0 2 4 3 3 5 8 10 7 9 8 7 6 4 7 8 6 4 1 1 1 62 172 261 303 325 269 102 38 42 130 173 193 225 226 270 299 332 401 418 286
0 0 1 2 5 1 5 6 7 8 9 7 6 6 7 8 3 7 10 8 2 1 3 12 122 182 192 217 170 155 118 26 92 36 188 126 177 239 292 334 382 175
2 0 1 1 2 6 7 7 8 7 8 9 9 8 9 7 6 6 6 7 10 7 4 0 1 24 204 226 178 153 78 14 17 13 16 114 128 237 296 283 259 193
0 3 4 5 5 5 6 6 6 5 9 7 6 4 5 8 5 5 6 6 7 7 11 6 0 2 9 172 188 146 142 90 60 22 38 24 120 169 193 227 108 155
Wind_Speed
23 23 23 24 24 23 23 23 24 25 26 27 28 28 29 31 32 33 33 35 37 36 34 32 29 30 29 30 33 33 30 28 28 27 25 24 24 26 29 28 27 28
nan 24 23 24 24 26 25 24 24 25 26 27 28 29 30 31 32 33 32 33 34 34 33 32 30 28 28 29 31 32 29 31 28 28 25 23 25 24 25 28 29 29
nan nan 23 23 24 24 24 25 24 24 25 26 28 29 31 32 32 32 36 34 28 30 33 33 29 28 24 25 27 29 30 29 28 28 24 25 26 23 25 28 30 28
nan nan nan nan 24 24 25 25 24 25 25 26 28 30 32 32 32 31 33 35 34 29 31 30 28 24 25 26 27 29 29 27 27 28 26 25 23 24 27 30 31 29
nan nan nan nan nan 25 25 24 24 24 24 24 26 28 31 31 30 32 32 33 32 31 28 25 26 27 28 27 27 26 29 29 28 28 27 24 24 24 26 31 32 28
nan nan nan nan nan nan 25 24 24 24 23 22 22 24 26 27 28 28 30 30 32 27 26 29 29 29 27 27 27 26 27 29 29 25 26 26 26 26 28 29 31 29
nan nan nan nan nan nan nan nan 25 25 23 22 21 21 22 24 25 25 25 28 27 25 25 28 27 26 25 26 26 26 26 27 27 26 26 27 nan 25 26 26 28 28
nan nan nan nan nan nan nan nan nan 25 23 22 20 21 21 21 22 23 22 23 24 22 23 23 22 23 25 25 27 27 27 29 25 22 22 20 24 24 24 23 26 25
nan nan nan nan nan nan nan nan nan nan 24 23 21 20 21 20 20 19 21 20 21 22 18 18 18 22 27 27 27 27 25 26 24 nan 21 23 22 23 23 23 23 21
nan nan nan nan nan nan nan nan nan nan nan nan 21 20 19 20 19 18 18 19 20 19 19 18 18 24 25 24 23 24 24 23 24 23 21 nan 21 22 26 25 22 24
nan nan nan nan nan nan nan nan nan nan nan nan nan 19 19 19 18 18 18 18 19 17 17 19 19 21 23 22 23 24 23 21 21 22 21 18 18 21 25 27 25 24
nan nan nan nan nan nan nan nan nan nan nan nan nan nan nan 18 19 18 17 16 17 15 15 16 20 25 23 20 20 23 23 22 22 22 21 20 18 18 21 23 23 23
nan nan nan nan nan nan nan nan nan nan nan nan nan nan nan nan nan 17 17 17 17 17 12 15 22 22 23 20 18 20 23 22 22 22 22 20 18 16 18 22 25 31
nan nan nan nan nan nan nan nan nan nan nan nan nan nan nan nan nan nan 17 18 20 21 17 18 15 21 22 20 18 21 22 22 22 24 23 20 19 19 20 24 28 27
nan nan nan nan nan nan nan nan nan nan nan nan nan nan nan nan nan nan nan 20 20 18 18 18 17 21 22 23 22 20 21 22 23 22 22 20 19 22 23 23 25 26
nan nan nan nan nan nan nan nan nan nan nan nan nan nan nan nan nan nan nan 26 26 24 23 22 21 25 27 26 25 21 20 23 24 22 22 20 21 24 24 23 25 25
nan nan nan nan nan nan nan nan nan nan nan nan nan nan nan nan nan nan nan nan 27 27 27 31 35 29 32 34 22 13 19 24 23 23 23 22 23 24 25 24 28 29
nan nan nan nan nan nan nan nan nan nan nan nan nan nan nan nan nan nan nan 29 28 27 27 32 33 35 34 33 30 26 25 25 21 20 23 24 23 25 27 30 29 29
nan nan nan nan nan nan nan nan nan nan nan nan nan nan nan nan nan nan nan 31 30 28 27 28 34 34 33 32 31 27 26 29 26 21 21 24 28 25 28 28 28 28
nan nan nan nan nan nan nan nan nan nan nan nan nan nan nan nan nan nan nan 34 32 30 28 26 33 34 32 31 29 27 24 25 25 26 23 22 26 25 25 27 27 28
nan nan nan nan nan nan nan nan nan nan nan nan nan nan nan nan nan nan nan nan 35 33 30 28 29 34 34 30 26 25 24 21 24 27 26 24 23 25 28 29 28 28
nan nan nan nan nan nan nan nan nan nan nan nan nan nan nan nan nan nan nan nan nan nan 34 32 29 34 34 31 27 nan 23 22 21 24 25 24 22 24 25 28 28 28
nan nan nan nan nan nan nan nan nan nan nan nan nan nan nan nan nan nan nan nan nan nan nan 34 32 34 35 33 29 nan nan 24 22 21 23 22 23 24 26 25 27 28
nan nan nan nan nan nan nan nan nan nan nan nan nan nan nan nan nan nan nan nan nan nan nan nan 34 35 36 35 33 30 26 nan nan nan 22 24 23 24 25 26 27 29
nan nan nan nan nan nan nan nan nan nan nan nan nan nan nan nan nan nan nan nan nan nan nan nan nan nan 39 37 37 34 nan nan nan nan nan 28 26 25 26 29 33 33
nan nan nan nan nan nan nan nan nan nan nan nan nan nan nan nan nan nan nan nan nan nan nan nan nan nan nan 40 39 39 37 nan nan nan nan nan 28 28 35 34 37 35
Wind_Direction
271 274 276 277 277 278 281 286 288 290 292 295 296 295 295 293 293 293 290 288 289 288 287 283 284 287 283 278 275 276 277 281 279 280 281 282 281 276 264 262 257 248
nan 271 275 277 280 282 281 283 289 293 296 296 295 293 291 289 290 290 289 290 293 288 284 281 281 283 281 277 277 275 276 275 278 277 285 288 282 283 274 266 259 250
nan nan 275 276 279 280 280 280 285 292 296 295 294 293 291 290 290 287 288 295 294 288 279 276 278 279 277 276 277 275 273 277 279 277 279 275 275 282 273 263 255 251
nan nan nan nan 279 279 282 286 287 290 292 294 295 295 293 292 293 293 292 294 299 296 285 278 277 282 283 277 275 270 272 275 277 276 275 271 277 283 277 262 251 246
nan nan nan nan nan 279 281 286 287 288 291 293 298 300 300 298 295 295 296 296 296 293 285 283 277 275 276 274 274 272 268 267 274 275 271 273 276 282 281 260 249 243
nan nan nan nan nan nan 278 279 282 283 283 289 295 302 304 302 299 298 298 299 301 296 287 277 274 268 271 275 272 270 268 264 267 274 270 266 268 276 274 261 246 239
nan nan nan nan nan nan nan nan 277 279 284 285 289 295 302 305 301 301 301 301 302 297 285 278 275 275 270 273 271 270 267 265 265 270 270 269 nan 281 278 259 245 239
nan nan nan nan nan nan nan nan nan 279 283 287 291 295 297 301 307 303 304 306 305 297 286 278 272 271 276 276 271 267 267 261 262 272 275 279 281 289 280 249 237 232
nan nan nan nan nan nan nan nan nan nan 281 285 290 295 298 302 302 307 309 312 310 303 287 273 268 266 269 274 270 264 267 266 263 nan 271 268 273 277 267 246 235 233
nan nan nan nan nan nan nan nan nan nan nan nan 287 293 299 304 306 306 311 315 315 306 298 288 282 276 270 268 265 265 265 267 264 267 273 nan 271 270 254 239 230 231
nan nan nan nan nan nan nan nan nan nan nan nan nan 293 298 301 301 305 309 314 315 310 294 287 283 282 272 261 263 266 265 261 262 267 273 277 276 267 253 235 230 232
nan nan nan nan nan nan nan nan nan nan nan nan nan nan nan 301 304 303 307 307 301 302 288 269 272 269 259 253 266 271 261 256 256 258 265 267 264 259 250 243 242 237
nan nan nan nan nan nan nan nan nan nan nan nan nan nan nan nan nan 301 302 296 299 295 285 261 257 264 257 262 283 281 261 253 251 250 255 256 253 257 253 241 238 241
nan nan nan nan nan nan nan nan nan nan nan nan nan nan nan nan nan nan 292 296 295 301 283 263 266 260 253 254 266 268 259 255 251 248 248 250 248 252 250 247 244 240
nan nan nan nan nan nan nan nan nan nan nan nan nan nan nan nan nan nan nan 276 283 290 285 276 276 268 253 251 254 255 259 257 252 247 249 250 252 251 246 241 243 240
nan nan nan nan nan nan nan nan nan nan nan nan nan nan nan nan nan nan nan 270 271 270 268 272 275 264 241 240 263 269 273 261 253 249 248 251 252 253 248 243 239 236
nan nan nan nan nan nan nan nan nan nan nan nan nan nan nan nan nan nan nan nan 267 270 268 266 265 263 244 236 236 271 264 249 245 245 247 249 253 253 254 253 247 240
nan nan nan nan nan nan nan nan nan nan nan nan nan nan nan nan nan nan nan 263 265 264 268 273 271 254 247 244 241 234 234 237 246 259 250 248 251 251 251 251 250 248
nan nan nan nan nan nan nan nan nan nan nan nan nan nan nan nan nan nan nan 261 261 259 261 268 272 252 249 245 241 241 238 235 236 237 247 245 250 250 251 254 253 251
nan nan nan nan nan nan nan nan nan nan nan nan nan nan nan nan nan nan nan 256 257 260 263 263 268 246 244 243 243 245 242 238 242 236 231 237 250 255 254 255 256 256
nan nan nan nan nan nan nan nan nan nan nan nan nan nan nan nan nan nan nan nan 253 255 261 261 263 244 241 241 241 243 239 247 250 240 240 236 236 244 251 254 254 258
nan nan nan nan nan nan nan nan nan nan nan nan nan nan nan nan nan nan nan nan nan nan 255 256 261 248 237 238 239 nan 239 263 257 245 242 241 238 238 246 257 257 257
nan nan nan nan nan nan nan nan nan nan nan nan nan nan nan nan nan nan nan nan nan nan nan 254 254 248 238 236 236 nan nan 268 262 253 244 242 242 240 241 246 254 260
nan nan nan nan nan nan nan nan nan nan nan nan nan nan nan nan nan nan nan nan nan nan nan nan 253 246 237 235 235 236 244 nan nan nan 249 243 244 242 242 247 254 263
nan nan nan nan nan nan nan nan nan nan nan nan nan nan nan nan nan nan nan nan nan nan nan nan nan nan 239 235 233 236 nan nan nan nan nan 245 243 246 245 250 257 254
nan nan nan nan nan nan nan nan nan nan nan nan nan nan nan nan nan nan nan nan nan nan nan nan nan nan nan 237 236 235 236 nan nan nan nan nan 242 248 249 250 261 261